Theta_e
359 360 361 358 357 358 361 359 358 361 362 358 357 355 351 354 346 343 342 344 342 344 347 344 352 363 364 364 360 361 362 364 360 362 365 366 368 358 353 355 353 353 352 353 354 354 355 357 358 359 360 360 358 357 355 352 348 344 341 339 339 338 339 337 336 336 336 335 335 335 335 336 337 338
366 363 362 361 359 361 359 358 358 364 364 358 358 358 359 359 352 350 345 347 349 346 348 347 348 358 361 358 359 360 361 364 364 362 364 364 366 354 353 354 354 353 352 351 350 352 353 354 355 354 354 355 357 358 356 352 349 346 343 341 342 340 338 338 335 335 335 335 335 334 335 335 334 335
366 366 362 364 360 361 359 360 355 362 365 362 361 360 362 361 360 356 353 347 352 352 349 351 354 354 358 357 357 358 360 361 361 363 366 366 360 356 365 359 355 353 351 349 348 347 347 347 347 346 347 348 350 354 355 352 350 347 345 342 341 339 337 337 335 336 335 334 334 333 334 334 333 333
368 369 366 368 367 366 366 364 361 360 365 366 360 361 362 362 363 360 357 352 351 356 352 354 355 354 357 358 357 359 359 358 360 368 362 365 359 366 362 359 354 352 349 348 346 344 343 341 342 344 346 348 350 352 352 351 349 348 346 342 341 340 337 338 336 336 335 334 334 333 332 333 332 331
366 366 365 365 367 371 366 364 363 362 363 365 364 365 364 361 364 363 360 354 353 358 361 356 355 358 359 355 360 358 357 358 361 359 363 364 361 359 359 360 352 351 350 349 346 344 342 340 340 342 345 347 348 351 352 350 348 347 345 342 339 337 336 337 336 335 336 334 333 333 331 332 331 329
363 365 365 365 363 368 367 365 362 361 359 360 359 359 360 360 362 367 363 361 356 354 359 358 362 358 359 356 361 360 358 359 362 360 360 359 357 356 358 359 354 350 353 348 345 343 341 340 340 341 344 346 347 348 348 348 345 344 342 338 333 332 332 334 335 335 335 335 333 333 332 331 330 329
366 364 365 364 363 361 364 366 363 362 362 360 361 360 360 359 359 362 365 362 357 356 356 361 358 359 359 359 358 360 359 363 360 360 356 353 351 354 354 354 351 349 351 348 347 343 340 340 340 339 341 342 342 343 342 340 340 340 337 333 332 331 329 329 333 335 335 336 334 333 332 330 329 328
361 361 363 361 361 363 362 362 360 359 360 362 364 362 363 362 359 361 360 362 360 358 354 359 357 359 358 357 360 358 358 356 356 356 357 356 354 355 353 352 350 348 346 349 345 343 341 339 339 338 338 337 335 335 335 334 335 334 333 332 330 328 327 326 328 333 333 333 332 332 331 329 328 327
361 359 358 357 360 361 360 359 356 356 359 360 358 356 358 358 357 357 358 359 359 358 356 357 361 361 360 358 359 359 355 355 355 357 356 354 353 356 355 351 348 344 342 345 344 342 342 341 340 338 337 337 335 333 332 332 332 332 330 330 329 328 326 325 323 326 327 329 330 328 328 327 327 326
360 358 359 358 359 358 356 354 355 358 357 355 351 352 355 355 355 356 357 357 358 358 357 357 354 359 353 355 359 361 359 355 350 350 352 355 355 356 353 352 351 349 349 352 352 346 345 340 332 338 340 338 335 334 333 332 330 328 327 324 324 326 325 324 325 323 323 325 327 328 326 325 324 323
354 354 355 357 358 358 358 355 353 354 354 350 352 354 356 354 352 350 350 350 352 353 352 351 352 351 352 353 349 352 356 360 361 356 352 354 357 356 357 357 357 355 355 353 348 349 349 347 351 340 335 336 335 334 333 332 329 329 325 322 321 323 322 322 323 323 322 322 323 323 322 323 325 324
353 353 353 350 351 354 357 358 357 356 354 356 353 354 354 356 356 355 352 352 352 351 349 347 345 348 350 352 355 354 355 353 353 354 349 347 351 356 361 362 360 363 366 360 354 349 349 347 345 334 334 336 336 336 335 333 335 332 329 324 324 325 322 321 321 321 320 319 319 319 319 318 322 323
355 355 354 352 351 355 357 360 364 364 368 360 357 360 362 362 358 359 356 354 354 355 353 351 352 347 347 348 349 345 345 346 348 353 354 355 356 355 355 358 363 363 360 358 356 356 360 357 358 358 360 362 357 355 341 348 341 336 330 326 327 326 324 321 321 321 320 319 319 318 318 317 318 320
354 353 353 351 352 358 362 367 369 363 359 359 359 361 362 362 362 359 358 357 354 352 352 349 345 342 342 341 345 343 346 349 351 348 353 352 354 356 357 360 363 364 361 360 362 364 363 359 360 362 361 359 367 359 366 359 353 346 331 329 327 327 326 322 321 320 319 319 318 318 316 317 318 318
356 355 355 357 358 364 368 366 362 359 357 357 355 354 356 360 362 359 356 356 357 354 352 349 348 344 345 348 352 351 347 346 349 352 355 355 354 355 354 351 360 368 367 365 364 365 368 368 363 365 364 361 360 359 359 348 345 340 334 330 328 327 326 325 323 321 319 318 317 317 316 316 317 317
357 355 354 353 352 353 356 360 369 369 361 354 355 354 354 354 355 355 360 359 357 358 354 352 352 352 352 353 355 350 350 354 357 360 360 359 358 355 354 354 353 363 368 365 363 361 367 365 362 363 363 363 361 358 350 343 343 339 335 333 330 329 327 326 326 325 322 320 319 319 319 318 318 317
359 361 358 356 353 351 358 360 361 367 369 367 356 355 355 355 351 343 342 347 361 359 358 356 356 355 357 357 359 361 363 367 362 362 358 358 357 357 355 356 355 362 370 364 361 358 363 367 362 358 360 362 362 361 347 340 341 336 334 332 331 330 328 326 326 325 323 321 319 319 318 317 317 317
357 360 362 360 358 359 363 367 367 368 368 368 369 370 369 368 366 354 342 340 341 351 357 358 358 362 366 362 365 368 369 364 361 360 357 362 359 359 359 363 362 365 365 361 360 359 361 363 359 359 362 362 363 365 352 336 335 335 333 331 329 328 326 326 325 324 323 321 319 317 316 315 315 316
360 361 361 363 361 364 366 366 367 367 366 366 364 365 364 363 364 363 361 362 361 360 359 360 361 362 364 365 366 369 370 368 366 363 362 362 362 362 365 365 365 365 367 367 362 355 360 364 359 358 361 360 364 365 350 339 337 336 333 331 330 327 326 325 325 323 322 321 319 316 315 314 313 313
366 365 365 366 365 365 366 366 358 362 362 361 361 361 362 363 361 359 364 351 356 368 369 369 367 367 374 347 364 364 359 359 359 358 357 357 357 355 355 354 355 354 359 360 358 354 355 361 355 357 362 363 364 367 368 348 335 335 333 332 329 327 324 323 323 322 321 321 319 317 314 312 311 311
364 364 366 367 364 364 366 339 330 338 354 358 360 361 360 359 358 356 357 350 338 340 337 332 331 330 329 330 328 326 325 343 349 352 350 349 351 350 349 351 352 352 357 358 360 354 352 359 359 357 360 363 363 364 365 366 341 330 331 329 328 326 324 322 320 320 321 320 319 318 316 312 311 311
363 363 360 358 362 363 353 326 325 327 350 358 360 360 359 358 357 358 360 364 367 332 329 328 328 328 328 328 327 327 326 325 334 350 348 352 352 350 351 349 351 352 356 358 361 356 353 359 361 358 360 361 362 362 363 364 360 329 328 326 326 325 324 322 320 320 320 319 319 317 315 312 311 320
361 364 361 355 348 345 331 318 321 324 342 358 360 362 359 357 358 359 364 362 361 364 364 366 373 365 348 355 360 360 338 332 340 350 353 355 354 351 351 353 353 351 355 361 366 357 357 358 357 359 355 352 357 362 362 363 367 368 368 369 353 326 324 323 320 317 318 318 317 317 313 311 313 331
358 359 356 347 325 320 318 316 314 317 319 343 355 359 356 357 357 356 358 360 359 361 360 362 363 363 365 363 366 366 368 365 362 358 359 360 359 359 356 355 354 350 354 362 363 358 357 361 359 363 359 352 349 357 362 362 364 366 367 365 362 333 326 325 321 315 315 316 315 315 313 310 314 336
354 353 356 351 329 319 317 314 310 311 315 322 345 353 356 352 340 339 356 358 357 360 361 360 361 361 361 363 362 362 363 361 363 365 362 364 364 361 358 357 354 357 359 364 356 367 359 359 357 359 358 357 356 355 358 360 363 363 367 367 363 362 358 354 349 352 318 312 312 312 311 311 311 329
349 349 349 352 334 317 313 309 308 307 312 317 340 350 324 318 321 342 347 352 356 355 357 356 354 354 355 356 358 359 360 361 361 362 364 368 368 367 363 362 356 352 353 368 351 365 359 357 358 356 356 354 354 351 352 356 360 361 366 365 365 364 364 363 360 364 358 343 336 320 321 311 312 313
344 345 346 347 335 314 307 305 305 309 310 319 339 315 314 315 316 330 347 350 351 352 353 353 352 352 354 354 353 354 360 363 363 360 362 365 365 365 364 365 364 362 362 365 367 366 365 358 361 358 357 357 352 353 355 353 355 362 361 361 365 365 365 363 360 360 362 360 357 322 314 312 311 313
339 342 344 340 313 305 305 307 312 314 327 332 315 316 317 318 326 342 347 347 350 350 349 350 350 351 352 354 352 356 359 357 361 361 361 363 363 364 365 366 364 364 366 364 366 364 366 364 363 363 361 359 355 349 350 355 356 358 356 361 362 362 362 361 360 361 359 363 363 345 339 334 327 322
341 329 314 310 311 318 319 323 327 326 329 320 319 319 324 344 351 350 348 348 350 348 347 347 348 349 351 353 354 357 357 360 361 361 360 358 362 362 363 363 366 367 362 361 365 366 367 363 362 363 361 359 357 357 354 352 354 356 357 356 355 359 361 363 363 361 361 361 360 360 354 351 345 333
324 318 320 321 322 324 329 341 341 339 337 329 328 330 340 345 343 344 343 344 343 342 341 341 342 344 345 347 350 353 357 358 358 360 358 357 356 359 357 357 359 362 362 363 361 364 367 364 361 364 363 361 357 357 358 355 353 357 355 356 358 359 361 362 361 362 360 360 359 360 362 362 360 346
336 338 334 331 325 324 325 329 333 332 333 337 336 335 334 335 338 340 340 340 342 340 337 336 339 341 342 344 343 344 346 348 351 355 352 352 353 354 354 354 354 356 359 361 361 363 367 364 363 360 358 359 358 361 356 357 355 355 356 360 358 354 358 363 362 361 362 362 362 360 362 361 360 360
334 332 335 330 342 332 334 335 332 331 334 332 331 332 331 331 335 335 333 335 340 338 336 336 338 338 340 337 337 338 340 342 346 350 347 348 347 348 351 350 351 352 354 357 359 362 364 366 366 365 357 355 357 359 359 357 356 358 356 356 358 361 362 360 360 360 363 364 361 359 360 359 359 360
336 333 330 329 328 326 324 325 325 324 325 327 327 328 328 328 330 330 329 332 332 332 331 332 333 333 334 335 336 338 337 340 340 344 343 345 344 346 347 346 346 347 348 350 351 356 361 362 366 367 366 365 365 363 358 353 354 357 357 359 360 360 362 363 362 364 364 362 359 358 359 361 361 361
331 329 327 326 325 323 324 323 323 322 323 325 324 325 324 326 326 325 327 328 326 328 328 330 330 330 330 331 333 333 333 335 336 337 333 340 342 340 338 337 340 343 346 347 349 352 354 357 360 361 366 362 359 359 358 356 354 358 358 358 358 359 361 364 364 365 365 361 360 357 356 358 360 361
327 325 324 324 324 323 323 323 321 323 322 322 322 323 323 325 325 324 325 325 323 325 326 328 328 327 328 328 329 328 329 331 333 333 336 335 336 336 336 335 336 339 340 340 339 344 346 350 355 352 353 355 355 359 357 365 356 359 355 355 357 357 358 361 361 364 364 365 360 356 355 355 356 359
326 324 323 323 323 322 321 322 323 322 321 322 323 322 322 322 324 324 325 324 326 326 325 325 324 326 326 326 327 326 327 327 328 329 330 330 331 332 333 334 335 336 336 336 336 337 336 335 336 338 343 341 343 344 347 351 355 364 354 351 355 357 359 359 358 359 360 359 362 358 352 352 355 358
324 324 324 323 325 323 322 323 323 322 323 322 322 321 321 321 322 325 327 323 326 325 324 323 324 324 324 324 324 323 325 325 326 326 327 329 329 330 329 331 330 331 330 332 333 334 336 335 336 338 343 341 337 336 341 355 346 343 360 356 355 355 355 355 358 355 359 360 359 357 359 355 354 358
322 322 322 322 323 323 323 322 321 322 322 322 321 321 321 321 322 324 325 324 323 322 323 323 323 323 323 322 323 323 323 324 324 325 324 326 327 327 326 326 325 326 327 328 329 330 334 335 335 335 342 338 334 333 334 340 344 346 340 356 353 354 355 355 350 351 353 355 355 357 359 357 356 357
320 319 320 320 320 321 320 321 320 320 321 320 320 320 320 320 320 320 320 320 321 320 320 321 321 321 321 322 322 322 321 321 321 321 322 323 323 323 323 323 323 324 324 323 327 329 330 330 330 334 340 335 333 334 335 334 333 340 341 330 348 351 351 352 352 352 352 353 354 358 359 360 353 340
319 320 319 319 319 320 319 320 319 320 319 320 319 319 318 318 318 318 319 318 319 318 319 319 320 318 321 321 321 321 320 320 319 320 320 320 320 321 321 322 320 320 322 322 324 326 327 327 330 332 330 328 328 330 333 336 341 345 346 342 324 341 352 351 350 350 352 354 353 352 352 354 352 356
318 318 318 319 318 318 318 318 318 318 318 319 319 317 318 318 317 317 317 315 316 317 317 318 319 320 320 320 320 319 318 318 318 319 319 318 318 317 317 315 318 320 320 321 322 323 325 328 330 322 328 330 333 337 335 334 334 336 337 340 327 319 323 334 355 353 351 354 354 349 347 348 350 352
318 317 317 317 317 318 316 316 317 317 316 317 317 317 317 317 317 315 315 316 318 318 316 316 318 317 317 318 318 317 317 317 317 317 317 317 317 317 316 317 318 318 318 317 319 320 324 327 328 330 330 330 328 327 325 326 328 329 333 337 341 330 324 318 319 329 358 355 350 347 347 347 348 347
317 317 316 316 317 316 316 315 315 315 315 315 315 316 315 315 316 316 316 316 316 315 315 315 316 317 316 316 316 316 315 315 316 316 316 316 315 315 315 316 316 317 317 317 319 320 322 324 326 325 326 326 326 326 324 325 327 328 330 332 335 339 341 329 322 319 320 324 329 342 352 349 345 341
317 316 315 315 315 315 314 314 314 315 315 315 314 315 314 314 314 314 315 314 314 314 315 314 314 314 314 315 315 315 315 315 314 314 313 313 313 314 314 314 315 316 316 316 317 318 319 320 322 322 321 321 323 323 323 325 325 326 327 328 331 334 333 335 339 334 329 326 323 321 323 327 334 335
315 314 314 315 314 314 314 314 314 315 314 314 313 313 312 313 312 313 313 313 313 313 313 313 313 313 314 314 313 313 314 310 310 312 313 313 313 313 315 314 314 314 314 316 314 315 317 318 319 320 320 321 322 324 323 323 323 323 324 326 327 329 331 331 333 333 334 338 332 324 322 324 324 324
Wind_Speed
4 3 2 3 3 4 3 4 5 2 3 4 4 3 4 3 5 5 7 7 8 8 8 7 4 3 5 6 6 5 7 4 4 7 7 6 7 5 6 7 8 9 8 8 8 8 7 7 8 9 10 10 11 12 11 10 9 9 9 8 7 6 5 3 3 2 1 1 2 3 4 4 5 6
3 3 4 3 3 2 4 4 4 1 2 4 4 4 3 2 4 4 6 6 6 7 7 8 7 5 5 7 5 6 7 8 3 6 8 8 7 6 11 10 10 9 8 8 8 8 7 6 7 7 7 8 10 12 13 12 11 11 10 9 8 7 6 4 4 3 2 1 1 2 3 3 4 4
3 3 4 3 4 3 4 5 5 3 2 3 3 4 3 3 4 5 4 7 4 6 8 7 7 8 6 6 7 7 8 1 3 7 8 9 8 10 13 13 10 9 7 7 7 8 7 7 7 7 7 8 8 10 12 12 12 12 11 10 9 8 6 5 4 4 4 2 1 2 4 3 3 3
2 3 4 3 3 3 3 4 4 4 4 3 4 4 4 4 4 4 5 6 7 6 8 7 7 8 8 7 7 8 7 4 8 6 8 8 7 9 8 7 12 9 8 7 7 8 8 8 8 7 7 7 8 10 11 12 12 12 11 11 10 8 8 7 6 6 5 4 3 2 3 3 2 2
4 3 4 4 4 4 4 4 4 4 4 5 4 4 4 4 3 3 4 6 7 6 6 7 7 7 8 7 7 8 8 8 7 8 7 8 8 8 7 7 8 11 7 6 6 7 8 8 8 8 7 7 8 9 10 11 12 12 11 11 10 9 8 7 7 7 6 5 4 3 2 4 3 2
4 3 4 4 4 4 4 4 5 5 5 5 5 4 4 4 4 2 4 5 6 7 6 6 7 8 6 7 6 7 7 7 7 8 8 8 8 6 7 7 5 12 7 6 5 7 8 8 8 8 7 7 8 8 9 10 11 11 11 11 11 10 10 9 8 7 7 6 5 4 3 4 4 3
4 4 4 5 4 4 3 3 5 5 5 4 4 5 5 5 5 5 4 5 7 8 7 7 8 7 7 7 7 7 6 7 7 7 8 8 8 7 8 7 9 10 5 7 6 8 8 9 8 8 7 7 8 9 9 10 10 11 12 12 12 11 11 11 9 9 8 8 6 6 5 4 4 4
4 4 4 5 4 3 3 4 5 5 5 4 4 4 4 5 5 5 5 5 6 6 8 7 8 8 8 7 7 7 7 8 7 7 7 8 8 8 8 9 9 5 7 7 10 10 9 9 9 8 8 7 8 9 9 10 10 11 12 12 12 12 12 11 11 9 9 8 7 7 5 4 4 4
5 5 6 5 5 5 5 5 5 4 4 4 5 5 5 5 5 5 5 5 6 6 7 7 7 7 7 7 7 7 8 8 7 7 7 8 9 8 9 10 8 11 9 12 12 10 11 12 9 9 9 8 9 10 10 10 11 11 12 12 12 13 12 12 12 11 10 9 8 7 7 6 5 5
6 6 5 5 5 5 5 5 4 4 5 5 5 5 5 5 5 6 6 6 6 7 7 7 8 7 7 7 6 7 7 8 9 9 8 8 7 7 8 8 9 9 8 8 5 8 11 10 11 11 10 11 10 10 10 11 11 11 12 12 13 13 13 13 13 12 11 10 9 8 9 8 7 6
7 7 7 6 6 6 6 6 5 5 5 5 5 5 5 6 6 6 6 6 6 7 8 8 8 8 7 7 8 7 7 8 8 8 8 8 7 7 8 8 8 9 9 10 10 11 9 9 10 7 11 11 13 11 11 11 11 11 12 12 12 12 13 13 13 13 12 11 10 9 9 9 9 8
7 7 7 7 7 6 6 6 5 6 5 5 6 5 5 5 6 7 6 6 6 7 8 8 8 7 8 7 7 8 7 7 7 7 7 9 8 8 7 8 9 8 8 9 10 6 8 10 13 14 13 14 13 13 11 13 12 12 11 12 12 12 13 13 13 13 13 13 12 10 9 9 8 9
7 8 7 8 8 6 5 6 6 7 5 6 7 6 6 7 6 7 7 6 6 6 7 7 7 8 8 7 7 8 7 7 8 8 8 8 9 9 9 8 8 8 9 10 10 10 10 11 11 10 10 7 9 13 15 10 15 12 12 12 13 13 13 13 13 13 14 13 13 12 10 9 9 9
8 9 8 7 1 0 6 8 8 9 8 8 8 7 6 7 7 7 7 7 7 7 7 8 8 9 9 9 8 9 9 9 8 9 8 9 10 10 10 9 7 7 9 9 9 9 10 11 11 9 9 9 7 8 5 3 5 8 12 12 12 13 13 13 14 14 14 14 14 13 12 10 9 10
9 8 8 8 7 8 9 10 11 10 10 10 11 12 12 10 8 7 8 7 7 7 8 8 9 9 9 9 9 10 10 10 10 9 8 9 9 9 10 11 8 5 7 8 9 10 10 10 10 9 9 10 10 8 5 9 6 8 10 10 11 12 13 13 14 14 14 14 14 14 13 12 12 11
8 8 8 8 8 8 7 6 7 10 12 12 12 13 13 13 13 13 9 8 7 8 8 9 9 9 9 9 9 10 11 10 9 9 9 9 9 11 10 10 10 7 7 9 10 11 10 10 10 10 9 9 8 8 1 5 7 8 9 10 10 12 12 13 13 14 14 14 15 15 14 14 11 11
7 7 7 8 7 7 3 3 7 6 6 11 14 13 13 13 14 14 16 15 12 9 9 9 10 9 9 10 9 9 9 8 9 9 11 10 10 10 10 10 11 9 8 9 10 11 10 9 9 9 8 9 9 9 5 9 8 9 10 10 10 11 12 13 13 13 14 14 14 15 15 14 13 13
8 7 7 6 7 7 5 4 6 6 6 6 6 8 9 9 13 16 16 17 18 15 11 10 10 10 9 9 9 9 9 9 9 10 11 11 12 10 10 10 11 11 9 10 10 11 10 9 10 10 9 8 8 7 5 10 11 11 10 11 10 10 11 12 13 13 13 13 14 14 15 14 14 13
8 7 7 7 7 6 5 5 3 5 5 6 6 7 8 9 9 9 10 11 10 9 10 11 12 11 11 11 11 9 8 9 9 8 10 11 11 11 11 11 11 12 10 11 9 11 11 9 10 10 9 10 9 8 3 11 13 12 11 10 10 10 11 11 12 13 13 13 13 14 14 14 14 13
6 6 6 5 6 5 6 1 4 3 5 7 8 8 9 9 10 10 10 7 5 7 8 8 8 8 7 9 10 10 10 10 10 10 10 10 10 10 10 11 11 12 10 10 9 10 11 9 11 10 10 10 9 8 8 3 11 12 12 10 10 11 11 11 12 13 13 13 14 14 14 14 13 13
6 5 4 5 5 5 5 9 8 6 4 6 7 8 9 9 10 10 9 6 11 9 7 10 12 15 16 17 17 17 16 11 10 9 9 11 10 10 11 11 11 11 10 10 9 10 11 10 10 10 10 9 9 9 9 8 7 12 11 11 11 11 11 11 12 13 13 14 14 14 14 14 13 12
5 2 6 3 5 3 7 8 9 9 5 6 7 7 9 10 10 10 7 2 3 9 11 12 14 15 15 16 17 17 17 16 8 8 10 11 10 11 11 12 12 12 11 11 10 9 9 10 9 10 10 10 9 9 8 7 3 12 11 14 13 12 11 11 11 12 13 15 15 15 15 14 13 9
3 2 7 14 12 9 7 9 9 9 9 5 7 8 9 9 9 9 8 7 8 7 8 8 8 9 11 11 10 11 17 18 13 11 12 11 10 11 11 11 12 13 11 9 9 9 10 9 9 9 10 11 10 9 9 6 7 6 6 5 9 14 13 13 12 12 13 14 15 15 16 16 14 8
6 4 2 6 8 8 8 7 6 6 6 6 7 8 8 9 8 8 9 9 10 10 10 11 11 11 12 12 11 12 10 9 12 13 12 11 10 9 11 12 11 12 11 8 10 10 11 10 10 8 10 12 12 9 9 9 9 8 7 8 10 7 10 8 8 12 12 13 14 14 15 17 16 9
2 1 2 4 8 9 7 5 5 3 4 3 5 6 7 6 6 9 9 11 12 10 10 11 10 10 9 9 9 9 9 8 8 7 9 10 8 8 10 10 11 12 11 7 6 8 9 10 12 11 11 10 11 12 10 10 9 9 8 8 8 5 6 7 6 6 11 13 12 14 15 18 20 14
2 3 4 4 9 10 8 7 5 5 5 4 4 4 6 9 10 7 7 8 9 10 9 9 10 11 11 11 10 10 9 9 9 9 7 6 6 6 9 8 9 11 12 9 4 8 10 11 10 11 10 11 12 12 12 11 10 9 9 9 8 8 8 8 7 7 6 7 7 12 14 19 20 22
2 2 4 4 9 10 9 8 6 4 6 6 4 8 9 7 6 5 5 6 7 8 9 9 9 10 10 10 10 10 9 6 7 9 10 9 9 10 11 10 11 11 12 12 10 11 9 11 11 11 11 11 12 12 12 12 10 8 10 9 8 7 7 7 8 8 8 7 8 16 15 16 20 21
2 3 4 4 9 9 9 6 4 1 5 6 6 6 6 5 4 3 5 6 7 8 9 9 9 8 9 9 10 8 6 10 9 8 9 10 12 12 10 10 10 11 12 13 11 12 10 11 11 9 10 9 11 12 13 12 12 11 11 9 9 9 9 9 9 8 8 9 8 6 6 7 8 10
3 1 7 9 7 6 6 2 1 4 6 6 7 6 9 5 0 3 5 6 7 8 8 8 8 8 9 10 10 10 10 10 9 8 10 11 11 11 12 11 9 8 9 11 10 10 8 10 10 9 9 9 10 12 12 13 12 12 11 11 11 9 8 8 8 8 8 7 9 7 8 8 7 10
4 5 6 5 5 5 3 2 2 3 3 3 5 5 4 4 3 3 5 6 6 7 7 8 8 7 8 9 11 12 11 10 8 7 8 8 9 9 10 10 10 10 10 10 12 10 7 8 12 10 8 8 10 12 11 12 12 12 11 11 11 10 9 10 9 9 8 7 9 9 10 9 10 9
5 6 0 2 4 5 5 7 6 3 1 2 2 3 4 4 3 3 3 4 5 5 5 7 7 8 8 8 9 9 9 10 9 9 10 10 10 11 10 11 11 11 10 10 10 8 7 8 10 11 9 9 11 10 11 11 12 12 12 10 9 10 9 9 9 10 10 10 11 11 9 9 10 9
5 5 3 6 3 2 3 3 2 2 3 3 4 4 4 5 3 4 4 3 2 4 5 6 6 6 6 8 8 8 8 9 9 10 10 10 11 11 12 12 12 11 12 11 11 10 10 8 7 3 6 10 12 11 11 11 12 12 12 11 11 10 11 11 12 11 10 10 11 11 10 9 9 10
6 3 3 3 2 3 3 3 3 3 4 4 4 4 5 5 4 5 5 4 4 6 6 6 7 7 7 7 7 7 8 8 8 8 8 9 9 10 10 11 12 12 13 13 12 11 10 9 9 8 8 9 10 12 11 13 12 10 11 11 10 11 10 10 10 9 10 10 12 12 11 12 12 12
5 3 4 3 4 4 4 4 4 4 4 4 5 4 3 4 4 6 5 5 6 6 6 6 6 6 7 7 7 8 8 8 8 8 9 9 8 9 9 10 10 11 11 12 13 13 12 10 11 11 7 8 10 12 12 12 13 11 11 11 12 11 11 10 11 11 9 10 11 12 13 12 11 12
2 4 4 3 3 4 4 3 4 4 4 5 5 5 5 4 4 4 4 5 6 6 6 5 6 6 6 7 7 8 8 8 9 8 7 8 8 9 9 10 10 10 10 11 12 11 11 11 9 9 11 10 10 12 12 13 11 8 10 12 12 10 11 10 10 9 9 8 10 12 13 13 12 11
4 4 4 4 3 4 4 4 4 5 5 5 5 5 5 5 5 5 5 6 7 6 6 6 6 6 6 7 7 8 8 8 8 8 8 8 8 8 8 9 9 9 9 10 10 11 11 12 11 11 11 14 14 14 12 11 13 7 8 9 9 9 8 8 10 10 9 11 8 9 14 14 13 11
4 4 3 4 3 4 4 4 4 5 5 5 5 5 6 6 6 5 6 7 6 6 6 7 6 6 6 7 7 8 7 8 8 8 8 8 8 8 9 9 9 9 10 9 9 10 10 10 10 9 9 9 10 13 14 7 6 10 8 9 10 9 9 8 8 11 11 9 10 13 12 11 14 12
4 4 4 4 4 4 4 4 4 4 4 5 5 5 5 6 6 6 6 6 6 6 7 7 7 7 7 7 8 7 7 7 8 8 8 8 8 8 8 9 9 9 9 10 10 10 9 10 10 10 8 8 10 11 13 11 11 7 10 10 12 12 11 10 12 14 12 12 11 11 13 12 13 13
5 5 5 5 5 5 5 4 5 5 5 5 5 5 6 6 6 7 7 6 7 7 8 8 7 7 8 8 7 8 8 8 8 8 9 8 8 9 9 9 10 9 10 11 10 10 9 9 9 9 7 8 9 10 11 13 15 14 11 11 11 14 14 12 13 14 13 12 12 11 11 12 14 16
5 5 6 6 5 5 5 5 5 5 6 6 6 6 7 7 7 7 7 7 8 8 8 8 8 8 8 7 8 8 8 9 9 8 9 9 9 9 9 9 10 11 11 11 11 10 9 9 8 7 9 10 12 13 13 14 15 15 15 14 20 17 13 13 13 14 14 13 12 13 14 13 14 12
6 6 6 6 6 6 6 6 7 7 7 7 7 6 7 7 8 7 7 8 8 9 9 8 9 9 8 8 8 8 9 9 9 9 9 9 10 10 11 12 11 10 11 12 11 11 10 9 10 12 13 12 12 12 12 12 13 12 13 12 8 15 19 17 14 14 15 13 12 13 15 15 14 13
5 5 5 6 6 6 6 7 7 7 7 7 7 7 7 7 7 8 8 8 7 8 8 9 9 9 9 9 9 9 9 10 10 10 10 10 10 11 11 10 10 10 10 12 12 12 12 13 13 11 10 10 10 10 12 12 14 13 13 14 13 12 15 18 20 18 16 15 14 15 15 15 13 15
5 5 5 6 6 6 6 7 7 7 8 8 8 8 8 8 7 7 7 7 7 7 8 8 9 9 10 10 10 10 11 10 10 10 11 11 11 11 11 11 11 11 11 12 12 13 13 12 11 11 11 10 10 10 13 13 13 14 14 14 14 13 12 10 14 18 20 21 21 19 16 15 15 15
5 6 6 6 6 6 6 7 7 7 8 8 8 8 8 8 8 8 8 8 8 9 9 9 10 10 10 10 10 11 11 10 10 11 12 12 12 12 12 12 12 12 12 12 12 12 12 12 12 11 12 11 11 11 13 13 13 13 14 14 14 15 16 14 13 13 15 19 22 23 26 26 23 25
6 6 7 7 6 7 7 7 7 8 8 8 9 8 8 8 9 8 8 9 9 10 11 11 11 11 11 11 11 12 11 12 12 12 11 12 11 11 12 12 12 13 12 11 12 13 12 12 12 11 12 12 11 12 13 13 14 15 15 15 17 15 14 13 14 15 14 13 13 20 24 25 25 26
Wind_Direction
281 260 226 279 297 297 303 295 289 329 333 309 328 309 319 349 308 315 316 320 319 316 323 316 335 37 325 308 305 304 304 37 17 324 311 314 300 71 324 291 281 279 276 279 280 278 271 264 253 244 238 222 220 230 234 230 220 218 225 237 257 275 278 293 289 281 319 338 331 344 349 359 8 360
269 280 287 277 275 284 277 264 276 303 293 293 287 300 315 321 301 311 302 308 306 307 312 312 324 347 327 308 323 320 309 109 323 326 313 310 325 355 294 276 267 265 269 276 280 281 281 273 264 261 251 236 221 223 228 230 222 221 222 231 240 253 266 270 267 276 280 269 325 327 327 3 11 12
279 292 281 282 276 287 295 307 286 297 278 267 278 289 295 295 301 298 301 294 298 307 304 306 325 318 321 337 321 319 332 8 354 316 320 310 337 298 277 256 238 246 258 268 275 280 279 277 273 266 251 241 225 221 224 225 224 221 222 226 230 238 252 247 261 263 254 263 273 296 309 345 8 3
269 272 276 275 275 286 291 292 300 277 255 271 288 301 310 292 279 292 288 285 297 301 299 311 309 306 330 321 318 329 303 324 198 328 309 312 290 273 304 204 213 223 231 251 267 272 278 276 275 269 256 240 231 224 218 223 224 221 221 221 227 230 240 242 244 253 249 249 250 250 291 313 348 336
255 257 270 276 283 289 281 280 283 287 274 260 252 252 257 272 283 284 296 293 295 293 307 304 303 320 319 317 328 313 320 318 336 319 313 311 303 306 311 309 209 195 202 239 257 272 276 277 276 272 261 249 240 232 224 220 223 223 220 219 221 221 229 236 234 244 248 240 244 235 269 290 303 310
260 248 256 266 267 249 262 280 283 280 291 292 292 293 293 299 295 287 288 297 297 297 301 307 316 302 312 310 325 322 312 323 318 316 313 304 311 316 313 306 311 166 174 221 249 272 271 276 277 271 259 247 243 236 228 227 225 225 221 216 215 217 224 231 231 234 237 237 236 232 232 265 283 298
247 246 247 252 247 242 244 255 268 288 296 300 303 299 299 300 298 298 296 298 297 303 303 306 299 312 323 314 315 310 308 308 302 306 308 318 315 315 311 308 309 158 171 194 252 263 272 274 270 267 258 247 240 237 233 228 228 226 224 217 214 215 219 226 234 232 231 228 230 230 217 229 262 275
242 247 251 263 272 284 272 265 276 274 276 284 279 282 287 288 298 302 291 280 290 296 299 301 306 309 311 305 302 305 305 304 317 310 315 303 306 314 309 306 301 159 185 217 236 253 261 257 256 251 253 247 234 234 230 225 221 224 226 222 217 215 216 223 229 234 230 224 220 224 210 203 242 262
257 259 260 258 259 258 261 260 263 276 282 286 294 293 293 291 295 302 301 291 283 287 289 296 296 297 289 294 301 307 310 310 303 307 304 307 306 309 309 304 309 308 243 222 234 241 238 237 232 238 238 234 231 230 230 223 219 218 220 222 221 217 216 217 223 231 235 229 219 206 201 198 219 245
244 251 250 248 248 251 258 270 282 286 283 278 274 280 286 291 291 280 275 273 273 276 279 283 290 284 296 299 298 301 300 303 309 306 304 302 307 309 307 314 312 314 323 332 296 236 229 220 223 230 223 227 233 231 229 225 220 218 216 218 219 219 218 216 216 222 231 232 226 206 199 197 199 220
243 238 238 235 238 244 250 263 265 265 270 276 283 274 276 275 278 281 282 282 280 279 281 282 280 285 286 295 297 302 301 289 285 294 303 302 306 311 310 305 310 312 319 312 268 260 284 296 274 227 214 225 234 237 230 229 226 220 213 213 216 220 220 218 215 216 222 229 227 219 203 198 196 205
248 244 243 244 233 231 233 238 247 248 259 269 271 278 284 286 279 282 287 291 289 285 285 287 295 298 296 288 286 291 286 288 291 297 306 306 308 305 302 300 306 313 306 301 314 292 240 241 233 239 240 233 234 233 231 227 229 219 211 204 209 214 217 218 217 215 216 222 225 222 211 200 201 209
239 241 244 238 237 224 218 234 256 281 304 288 282 278 273 270 275 276 279 277 278 278 278 284 284 281 284 288 287 291 297 299 304 303 297 299 300 303 305 306 303 300 301 304 311 315 317 304 304 312 307 293 209 222 219 222 203 210 205 200 202 207 209 213 214 215 214 216 221 220 215 199 190 209
250 247 250 254 270 190 227 225 221 229 237 239 260 276 281 285 284 281 279 275 271 276 280 277 282 287 289 295 299 301 297 299 292 299 310 303 304 304 301 296 295 301 299 307 306 301 302 307 304 294 290 299 279 307 225 295 44 178 202 196 198 202 205 207 211 212 212 212 216 218 214 206 191 204
262 265 259 261 233 212 210 220 221 229 228 228 231 241 248 256 262 270 271 272 281 282 279 281 279 283 291 296 302 298 300 305 313 310 305 298 300 300 303 303 300 281 305 302 297 294 300 303 296 293 292 297 307 302 304 122 201 193 196 199 194 199 202 205 207 209 210 210 211 214 214 211 208 201
249 254 256 253 252 239 235 248 207 211 217 223 227 230 236 238 237 239 245 258 264 266 274 280 285 289 288 292 293 298 306 310 304 298 295 291 291 293 292 292 293 305 301 301 298 293 297 301 299 294 287 293 294 299 308 181 193 213 215 214 206 200 203 205 206 207 208 208 208 210 211 212 200 192
250 254 260 266 270 281 87 229 249 252 233 206 212 222 228 234 233 230 231 238 246 256 258 270 275 274 280 282 284 293 301 305 292 291 288 289 289 287 285 282 292 299 308 297 290 297 302 298 290 287 294 302 307 306 250 204 204 212 223 223 219 208 205 206 206 207 206 207 208 207 209 210 210 208
241 237 247 251 255 262 260 250 248 247 242 253 238 226 228 234 225 221 224 227 231 239 255 260 262 261 261 266 273 281 288 289 287 290 290 294 290 286 282 292 291 286 285 279 294 294 289 298 305 299 298 299 295 280 265 179 196 209 222 227 223 219 211 207 207 206 206 206 206 208 209 209 209 208
252 246 242 249 255 253 249 259 288 264 273 266 260 257 259 258 264 253 237 221 214 222 231 244 249 261 265 267 271 271 269 274 284 289 294 292 287 285 283 278 269 272 260 255 265 281 289 294 293 295 304 306 300 297 290 195 204 209 222 226 224 224 219 212 208 206 204 203 204 207 208 209 208 207
246 246 250 253 257 258 262 108 112 289 296 286 272 268 266 268 267 267 253 241 262 235 229 233 253 268 305 329 307 303 298 292 286 285 282 275 271 272 276 278 284 283 288 288 287 285 289 293 296 302 301 303 295 300 297 251 202 209 213 219 222 219 217 213 211 206 203 201 202 202 204 206 207 206
247 243 263 275 288 274 59 38 45 42 307 280 282 279 281 283 285 284 290 209 209 214 243 274 281 282 280 279 280 278 272 258 271 287 282 270 269 273 276 279 280 282 289 291 293 297 291 292 299 298 300 298 299 291 289 293 198 197 204 214 217 218 214 213 207 205 202 201 200 200 198 198 199 198
255 274 81 309 287 314 55 28 27 355 306 271 272 278 281 286 284 287 292 14 223 210 217 234 247 251 257 256 255 259 260 258 237 237 249 262 275 276 276 281 281 286 288 290 293 288 279 296 296 298 299 295 285 285 293 296 238 173 201 208 211 208 209 208 210 207 205 202 200 197 192 187 178 184
279 245 65 48 42 44 38 30 24 9 341 297 278 280 284 282 292 306 350 322 305 303 304 291 274 264 243 243 245 243 233 240 225 225 243 263 265 270 274 275 283 286 284 297 317 295 294 292 295 301 304 299 296 295 295 286 287 276 269 222 204 205 199 200 203 209 211 208 203 196 188 177 175 199
269 45 106 70 49 41 31 22 16 6 7 332 318 310 290 296 304 344 329 317 315 309 302 295 293 290 293 291 289 285 270 236 218 219 229 245 260 267 270 269 277 284 290 306 326 306 299 299 293 297 295 299 300 300 297 294 286 281 269 265 287 196 188 179 203 208 214 212 207 199 188 179 183 198
340 95 123 127 49 19 13 5 354 329 340 316 306 304 307 345 339 322 314 313 313 298 295 292 291 292 296 296 294 292 287 288 295 288 267 272 265 260 270 276 280 276 288 301 24 316 304 300 292 292 289 286 284 289 292 292 289 282 274 271 269 261 174 197 208 202 198 207 209 205 196 188 194 208
343 350 332 348 18 356 346 342 323 304 281 274 277 318 334 328 349 342 307 299 292 288 290 295 299 302 299 297 294 292 297 312 313 307 305 300 307 305 292 300 298 295 288 302 347 303 297 290 291 295 295 293 289 291 296 291 291 287 280 277 271 271 270 276 247 249 189 186 198 201 204 200 202 210
320 339 317 22 9 330 324 323 320 300 286 251 6 340 319 320 317 288 281 288 288 289 297 304 302 301 301 300 297 295 309 320 308 308 302 306 301 289 292 287 281 279 286 294 293 287 281 281 286 290 292 291 294 295 289 288 288 295 288 278 276 267 263 263 260 263 264 236 215 185 198 201 208 214
18 351 18 347 313 314 317 309 307 291 32 34 355 346 329 282 249 249 276 278 281 286 289 290 298 303 306 306 306 318 318 306 305 294 297 297 290 285 284 286 289 284 285 282 283 279 273 278 283 278 277 286 288 291 293 291 287 287 284 284 285 283 282 273 263 259 260 270 277 154 190 202 215 220
63 289 279 284 296 318 347 311 273 188 47 6 3 355 337 295 329 321 335 340 338 336 340 338 337 333 331 326 320 318 313 298 295 306 306 301 304 305 295 286 271 274 281 287 285 285 286 290 281 279 280 281 284 286 288 289 294 291 290 294 284 280 281 280 280 266 252 259 274 245 218 222 208 197
235 252 245 245 268 195 322 294 23 19 15 292 271 256 268 330 336 337 339 338 342 336 329 331 326 328 325 325 328 328 324 319 314 304 292 297 299 302 307 305 298 292 289 284 283 286 282 259 268 266 270 274 273 277 285 293 289 288 287 282 287 288 272 273 273 275 268 254 252 262 265 254 252 190
202 196 51 347 276 270 253 255 231 213 179 255 333 7 9 357 353 10 348 330 317 325 327 317 317 317 318 318 321 321 323 316 323 335 331 324 322 319 315 310 302 299 294 292 289 277 269 292 294 297 299 285 281 280 293 293 287 283 281 280 281 277 286 285 276 270 271 261 257 258 252 250 255 227
323 327 241 220 259 288 255 231 289 5 11 1 348 8 1 350 0 12 323 287 348 345 325 311 315 312 319 320 320 315 310 313 318 328 327 329 321 320 319 313 310 311 308 305 302 299 292 277 277 254 244 273 279 284 285 282 284 287 286 285 278 277 277 278 280 278 270 271 271 266 261 259 258 259
300 305 294 332 316 318 332 332 337 343 350 12 348 357 7 335 355 357 349 356 358 346 329 328 324 322 324 317 312 312 315 322 322 323 322 318 317 317 316 312 314 317 318 312 310 309 306 300 290 279 273 273 276 279 278 287 282 283 289 284 283 279 280 276 280 281 281 270 267 264 254 253 256 254
295 332 324 339 345 342 339 350 344 349 348 358 346 352 357 332 5 351 339 2 353 335 321 321 321 328 321 315 323 324 322 321 317 323 320 313 316 310 307 309 310 314 316 316 318 320 320 315 308 295 272 250 251 258 271 276 283 286 287 296 283 277 275 279 276 278 278 280 274 271 270 261 256 255
293 334 331 344 345 341 330 359 349 344 343 357 342 342 338 346 354 348 342 7 341 321 319 322 325 321 320 321 324 323 321 320 318 316 318 314 310 305 308 306 311 317 320 315 311 316 324 327 324 310 298 293 292 276 232 233 265 273 286 272 282 289 289 289 287 284 288 275 279 281 277 271 263 262
329 331 341 336 348 340 335 358 350 347 345 347 342 337 340 336 347 339 351 354 322 319 318 328 319 314 316 318 322 320 315 315 310 314 315 313 310 311 306 307 308 312 313 310 310 315 317 311 311 315 320 315 309 299 295 218 210 242 258 282 283 289 289 288 288 291 280 283 269 262 269 270 273 267
333 330 336 336 345 346 341 341 348 342 340 339 335 340 335 330 335 341 348 324 307 314 326 312 308 318 317 321 320 309 311 313 313 314 308 308 311 309 308 309 312 311 308 307 310 307 305 304 307 306 308 313 311 308 303 329 238 234 249 265 277 272 281 289 290 281 274 259 268 271 268 279 275 271
315 320 326 330 342 337 341 337 344 331 341 334 331 331 332 332 329 330 332 316 325 325 325 319 318 317 320 322 311 311 312 310 309 307 310 313 311 314 315 312 309 308 307 306 304 303 301 301 304 308 311 311 313 303 304 309 311 278 229 250 275 287 291 286 283 284 283 281 275 274 277 274 278 277
300 310 312 314 326 326 327 337 331 329 335 333 331 329 330 328 328 329 324 324 330 331 324 317 315 321 316 306 308 309 310 314 312 311 310 311 313 312 312 309 307 307 308 301 300 298 303 302 308 311 321 320 306 297 297 299 292 293 275 240 266 282 278 278 279 279 281 282 280 279 275 272 273 270
293 292 296 303 303 316 316 319 319 323 325 330 330 330 328 325 329 323 319 328 334 327 313 307 307 307 303 311 313 311 307 306 305 306 307 307 306 307 304 312 311 306 298 295 296 300 300 303 306 328 331 308 293 286 285 279 279 278 279 259 223 231 258 275 274 277 282 278 284 287 287 287 283 282
296 296 298 304 302 301 306 312 315 319 317 322 319 324 320 324 315 315 331 324 315 309 308 309 309 307 307 309 308 307 306 303 301 301 303 302 301 300 304 304 294 294 297 298 300 299 302 315 325 316 290 286 282 282 278 275 278 286 290 292 263 224 232 244 260 274 275 280 283 281 281 282 286 285
297 292 289 291 298 303 302 302 307 308 306 311 317 320 319 310 308 303 294 283 297 308 305 304 306 306 305 305 306 306 301 304 306 303 302 302 304 303 299 296 297 302 300 298 300 301 305 307 304 301 297 294 292 289 285 284 288 290 294 297 297 274 232 233 242 241 250 269 278 278 276 280 280 280
282 281 284 289 291 291 296 300 302 304 305 307 308 313 311 305 308 309 311 312 308 303 304 304 304 305 306 306 303 302 301 298 299 300 303 304 304 303 301 298 297 299 296 294 295 297 298 303 306 305 300 295 289 286 282 286 287 288 289 290 291 300 299 267 238 243 246 243 242 248 262 272 282 277
290 288 284 286 288 290 291 293 297 301 302 302 306 305 306 312 309 305 307 310 307 305 306 304 303 301 301 301 300 297 295 298 302 304 301 299 296 294 294 294 293 292 293 293 296 298 302 302 301 303 300 295 294 288 285 289 287 290 293 294 297 298 292 293 286 254 237 235 239 242 242 245 246 254
288 287 293 293 292 291 290 292 295 298 299 300 302 304 308 306 307 307 306 307 307 306 304 303 302 299 299 298 299 298 301 305 298 289 288 288 289 291 292 294 293 292 290 294 295 295 295 298 300 300 291 289 289 289 290 287 287 289 286 285 287 286 287 291 290 288 285 284 240 225 236 239 243 246